Voltar ao catálogo

STARLINK-37546

AtivoComunicaçõesVLEO
NORAD 69467·PAYLOAD·🇺🇸 United States

Lançado Jun 8, 2026 de Cape Canaveral Space Force Station

Loading…

Próximas Passagens (próximas 24 horas)

TLE

AtualizadoSource: CelesTrak SupGP

Época: Sep 14, 2026, 21:08 UTC

1 69467C 26127AA  26257.88104167  .00015951  00000+0  47102-3 0  2571
2 69467  53.1572 192.0695 0001381 105.5641  54.4697 15.34399019    14

Acompanhe STARLINK-37546 em tempo real com AllMySat

Download on the App Store